Regional Weather Roundup
Issued by NWS

Home | Current Version | Previous Version | Text Only | Print | Product List | Glossary Off
Versions: 1 2 3 4 5 6 7 8 9 10 11 12 13 14 15 16 17 18 19 20 21 22 23 24 25 26 27 28 29 30 31 32 33 34 35 36 37 38 39 40 41 42 43 44 45 46 47 48 49 50

000
ASUS45 KSLC 280510
RWRUT

UTAH REGIONAL WEATHER ROUNDUP
NATIONAL WEATHER SERVICE SALT LAKE CITY UT
1100 PM MDT FRI MAY 27 2016

UTZ001>011-023>025-280600-

NORTHERN UTAH

CITY           SKY/WX    TMP DP  RH WIND       PRES   REMARKS
BRIGHAM CITY     N/A     51  45  79 NW3       29.97R
HILL AFB       CLOUDY    55  42  60 E7        29.96S
LOGAN          PTCLDY    52  46  80 S12       29.97S
OGDEN          MOCLDY    56  45  66 W7        29.95S
PROVO AIRPORT  PTCLDY    57  39  51 N5        29.97S
SALT LAKE CITY PTCLDY    61  45  55 CALM      29.96R
VERNAL         CLOUDY    53  38  56 CALM      29.98R
WENDOVER       CLEAR     57  43  58 SW3       29.96R
HEBER CITY     MOCLDY    50  39  66 W7        30.00F
WEST JORDAN    CLOUDY    54  43  66 CALM      29.98R

$$

UTZ012>022-026-027-280600-

SOUTHERN/CENTRAL UTAH

CITY           SKY/WX    TMP DP  RH WIND       PRES   REMARKS
BLANDING       PTCLDY    50  30  47 N5        30.07R
BRYCE CANYON   CLEAR     40  30  67 W3        30.10R
CEDAR CITY     PTCLDY    54  34  46 NE8       29.97R
DELTA          CLOUDY    55  39  54 N3        29.95R
HANKSVILLE     CLEAR     55  34  44 W5        29.96R
MILFORD        PTCLDY    60  34  37 S9        29.94R
MOAB/CYNLANDS  PTCLDY    63  36  36 NE8       29.93R
PRICE          CLEAR     52  29  41 N9        30.00R
ST GEORGE      MOCLDY    70  28  21 E5        29.85R
KANAB          PTCLDY    54  37  54 NE5       30.00

$$

REGIONAL REPORTS     COLORADO/ARIZONA

CITY           SKY/WX    TMP DP  RH WIND       PRES   REMARKS
CRAIG, CO      CLOUDY    46  41  82 NE5       30.06R
GRAND JUNCTION PTCLDY    52  45  77 S8        29.98S
RIFLE          CLOUDY    47  38  71 CALM      30.04R
MONTROSE       CLOUDY    53  34  48 NE5       30.05R
CORTEZ         CLOUDY    48  32  53 VRB3      30.01R
PAGE, AZ       PTCLDY    69  32  25 NW3       29.91R
GRAND CANYON   PTCLDY    42  25  50 CALM      30.07R
KINGMAN        CLEAR     69  28  21 S10       29.89R
FLAGSTAFF      MOCLDY    49  29  46 CALM      30.09S

$$

REGIONAL REPORTS    NEVADA/IDAHO/WYOMING

CITY           SKY/WX    TMP DP  RH WIND       PRES   REMARKS
LAS VEGAS, NV  PTCLDY    81  25  12 S6        29.74R
ELY            CLOUDY    55  34  45 SE6       30.02R
ELKO           PTCLDY    58  36  43 N8        29.98R
POCATELLO, ID  CLEAR     53  33  46 S10       29.97R
BURLEY         CLEAR     52  32  46 SW10      29.96R
EVANSTON, WY   CLOUDY    48  35  60 W6        30.05S
ROCK SPRINGS   CLOUDY    46  36  68 W9        30.02R
KEMMERER         N/A     43  32  65 W3        30.05S

$$



USA.gov is the U.S. government's official web portal to all federal, state and local government web resources and services.